Location: Karlovy Vary
(50.2167°N, 12.9000°E)
Time: 21:10:35
(UTC+01:00)

ISS - Visible Passes

Search period start: 18 March 2019 00:00
Search period end: 28 March 2019 00:00
Orbit: 406 x 411 km, 51.6° (Epoch: 19 March)

Date Brightness Start Highest point End Pass type
(mag) Time Alt. Az. Time Alt. Az. Time Alt. Az.
21 Mar -1.3 20:28:26 10° SSW 20:28:51 13° SSW 20:28:51 13° SSW visible
22 Mar -2.4 19:37:59 10° SSW 19:40:29 20° SE 19:40:43 20° SE visible
22 Mar -0.7 21:13:24 10° WSW 21:13:30 11° WSW 21:13:30 11° WSW visible
23 Mar -3.3 20:22:26 10° SW 20:25:08 47° SSW 20:25:08 47° SSW visible
24 Mar -3.2 19:31:36 10° SW 19:34:41 37° SSE 19:36:34 19° E visible
24 Mar -1.7 21:07:50 10° W 21:09:20 25° W 21:09:20 25° W visible
25 Mar -3.9 20:16:43 10° WSW 20:20:01 88° SSE 20:20:37 57° ENE visible
26 Mar -3.8 19:25:39 10° WSW 19:28:56 66° SSE 19:31:46 13° ENE visible
26 Mar -2.4 21:02:16 10° W 21:04:31 39° WNW 21:04:31 39° WNW visible
27 Mar -3.7 20:11:05 10° W 20:14:23 71° N 20:15:34 36° ENE visible
27 Mar -0.7 21:47:47 10° WNW 21:48:19 14° WNW 21:48:19 14° WNW visible
